Regional Weather Roundup
Issued by NWS Kansas City/Pleasant Hill, MO

Home | Current Version | Previous Version | Text Only | Print | Product List | Glossary Off
Versions: 1 2 3 4 5 6 7 8 9 10 11 12 13 14 15 16 17 18 19 20 21 22 23 24 25 26 27 28 29 30 31 32 33 34 35 36 37 38 39 40 41 42 43 44 45 46 47 48 49 50

000
ASUS43 KEAX 050510
RWREAX

WEATHER ROUNDUP FOR EASTERN KANSAS AND NORTHWEST MISSOURI
NATIONAL WEATHER SERVICE KANSAS CITY/PLEASANT HILL MO
1200 AM CDT SAT SEP 05 2015

KSZ040-057-103>105-MOZ028-029-037-043-050600-
...KANSAS CITY METROPOLITAN AREA...

CITY           SKY/WX    TMP DP  RH WIND       PRES   REMARKS
K.C. INTL      CLEAR     73  68  84 S8        29.98S
K.C. DOWNTOWN  CLEAR     80  69  69 S6        29.97S
LEES SUMMIT    CLEAR     79  68  69 S8        29.99F
OLATHE - IXD   CLEAR     74  69  85 S6        29.99S
OLATHE - OJC   CLEAR     74  69  85 S5        29.99R
LAWRENCE       CLEAR     73  69  87 SE5       29.97S

$$

MOZ001>008-011>017-020>025-030>033-038>040-044>046-053-054-050600-
...NORTHERN AND CENTRAL MISSOURI...

CITY           SKY/WX    TMP DP  RH WIND       PRES   REMARKS
ST. JOSEPH     CLEAR     73  68  84 S3        29.97R
MOSBY          CLEAR     72  68  88 CALM      29.99R
WARRENSBURG    CLEAR     73  68  83 SE5       30.00S
WHITEMAN AFB   CLEAR     76  69  80 S6        29.99S
CLINTON        CLEAR     75  72  88 CALM      30.01S
SEDALIA        CLEAR     74  69  85 S7        30.03R
WARSAW         NOT AVBL
CHILLICOTHE      N/A     75  71  87 CALM      30.01R
KIRKSVILLE     CLEAR     73  67  81 S6        30.03R

$$

MOZ041-047>049-056>058-063>065-088>090-097-050600-
...EASTERN AND SOUTHERN MISSOURI...

CITY           SKY/WX    TMP DP  RH WIND       PRES   REMARKS
ST. LOUIS INTL CLEAR     84  68  58 S6        30.05R
SPIRIT OF STL  CLEAR     72  71  97 CALM      30.03S
COLUMBIA       CLEAR     76  70  82 SE6       30.03S
JEFFERSON CITY CLEAR     75  70  84 SE5       30.02R
ROLLA          CLEAR     75  68  78 SE9       30.05R
OSAGE BEACH    CLEAR     73  68  83 CALM      30.04R
SPRINGFIELD    CLEAR     77  67  71 S9        30.03S
BRANSON        CLEAR     75  68  78 SE3       30.06S
JOPLIN         CLEAR     79  69  71 SE7       30.00S
WEST PLAINS    CLEAR     70  67  90 CALM      30.09R

$$

IAZ060-094-KSZ022-034>040-054-083-096-NEZ052-066-093-050600-
...KANSAS...SOUTHEAST NEBRASKA AND IOWA...

CITY           SKY/WX    TMP DP  RH WIND       PRES   REMARKS
TOPEKA         CLEAR     79  69  71 S10       29.96S
MANHATTAN      CLEAR     80  70  71 S13       29.93S
EMPORIA        CLEAR     76  69  79 SE10      29.97S
CHANUTE        CLEAR     75  70  84 SE7       29.98S
WICHITA        CLEAR     78  69  73 S9        29.95R
OMAHA          MOCLDY    80  68  66 S15       29.92R
LINCOLN        CLEAR     79  67  66 S13       29.90R
FALLS CITY     CLEAR     76  69  79 S8        29.94S
LAMONI         MOCLDY    77  69  76 S6        29.99S
DES MOINES     CLOUDY    79  70  74 S8        29.96F

$$



USA.gov is the U.S. government's official web portal to all federal, state and local government web resources and services.